GFSMA_sfc_rhum_000.txt.gz
RH
74 76 78 81 86 94 96 94 78 80 91 92 90 87 80 80 82 88 92 79 87 83 82 74 70 74 73 78 75 73 69 70 69 71 72 72 76 75 75 75 76 77 76
71 73 85 84 88 91 91 86 89 82 87 84 83 75 74 70 78 81 77 78 81 77 79 82 75 74 73 74 75 75 74 70 69 69 70 74 76 76 77 78 78 77 76
64 68 62 66 66 82 87 92 94 93 89 84 77 65 67 75 82 80 76 81 78 74 81 84 85 78 78 75 76 76 75 75 74 70 71 73 76 76 77 79 78 77 76
49 52 52 58 62 65 74 82 89 90 97 97 94 82 72 62 70 72 76 81 84 57 55 80 83 86 80 79 74 71 70 76 76 75 76 75 76 78 78 79 79 78 77
40 36 39 44 47 43 50 53 59 65 64 75 74 74 85 82 67 65 70 83 86 85 58 46 80 82 85 81 79 73 69 70 76 75 76 77 77 79 80 80 81 80 78
33 31 31 39 34 32 34 36 39 37 44 61 57 70 83 77 79 75 71 80 85 85 89 70 36 53 90 84 80 78 70 67 68 71 75 79 78 79 81 80 81 81 80
28 32 26 29 32 34 38 37 34 36 34 43 43 59 66 86 77 79 74 62 77 85 85 80 53 32 47 88 82 77 70 66 64 69 75 76 79 80 81 82 82 81 80
30 27 30 28 32 29 34 37 39 34 31 35 42 43 66 64 73 77 75 76 69 71 86 81 65 41 35 45 67 78 74 71 69 69 73 75 78 79 81 82 82 82 81
34 37 34 34 34 34 32 37 36 38 34 30 36 45 47 65 76 60 70 84 81 82 76 82 80 50 38 38 55 72 82 76 72 71 72 75 79 79 80 80 81 80 81
36 36 38 40 44 39 39 36 28 37 38 36 29 26 46 41 43 48 55 71 90 88 78 83 82 71 48 40 49 63 84 87 80 73 74 76 79 80 80 80 78 78 80
35 35 37 43 46 43 43 46 46 41 36 36 34 32 32 33 38 48 44 44 69 81 93 79 81 92 77 49 42 52 86 89 88 80 76 76 78 80 80 79 77 76 78
28 32 32 38 41 43 44 43 46 47 46 42 37 36 33 33 31 32 44 45 43 50 79 85 92 93 93 74 52 62 85 88 87 85 82 78 78 80 80 79 77 74 75
30 30 32 36 32 35 38 39 42 43 42 41 42 37 33 32 32 31 32 34 35 38 58 85 85 92 93 95 76 70 83 88 86 84 84 84 81 80 80 82 78 72 74
33 35 37 36 36 36 38 38 37 36 39 44 46 44 37 31 29 30 30 33 37 36 42 52 85 94 95 94 94 90 58 93 90 86 84 86 86 84 84 81 78 72 73
28 32 37 40 40 42 43 44 41 42 43 49 52 51 47 42 37 34 34 34 37 39 32 31 55 87 90 93 95 96 89 78 93 91 88 87 85 89 86 85 82 77 78
35 36 39 40 40 41 42 44 43 43 44 46 43 46 47 44 38 37 35 39 39 41 42 28 28 61 89 96 96 97 96 95 93 93 92 89 87 86 91 88 87 86 86
36 38 39 41 42 42 42 44 46 46 48 47 45 47 49 46 46 41 39 38 39 39 45 40 33 43 61 81 94 97 97 97 96 96 93 91 91 93 94 94 94 91 88
41 42 42 41 40 39 40 42 46 45 47 49 47 46 45 35 48 48 43 43 40 38 39 48 40 42 61 64 81 94 95 99 98 97 96 94 98 96 96 94 91 88 84
41 39 38 39 38 40 41 43 45 48 49 50 51 50 48 47 49 47 45 43 41 34 38 42 44 38 48 68 94 96 98 99 99 98 99 99 97 94 91 89 86 86 86
41 37 38 39 43 41 41 45 46 50 53 55 62 65 63 59 62 54 45 47 42 45 44 43 41 40 42 60 92 96 98 96 99 99 99 98 95 91 89 87 85 85 88
36 36 38 40 42 43 40 49 49 55 60 63 67 66 66 67 70 70 63 60 53 55 51 47 51 49 49 58 92 92 96 98 97 99 99 100 98 95 93 90 90 90 92
34 36 39 42 47 40 57 67 66 69 70 71 76 69 66 70 69 75 75 79 85 82 72 58 51 50 48 48 64 93 95 98 99 99 98 99 99 98 96 94 92 96 96
36 38 41 47 51 52 64 66 69 74 84 80 75 73 65 54 67 62 74 78 78 80 81 74 70 50 46 43 48 89 95 88 92 97 90 96 99 99 97 96 96 95 95
38 42 50 52 54 52 69 70 73 79 88 82 79 74 74 74 70 66 67 74 73 69 70 61 57 59 44 40 43 72 88 93 94 95 96 93 97 96 98 99 96 96 96
44 50 54 58 64 70 73 74 78 91 94 88 76 76 74 78 78 76 75 79 73 78 82 76 72 66 68 85 88 68 99 97 98 95 96 93 94 97 98 99 100 99 98
50 60 66 69 73 87 80 79 86 95 99 86 81 80 79 80 82 82 82 87 91 77 70 91 97 85 77 72 93 86 89 96 91 93 91 88 94 90 94 96 99 98 95

GFSMA_sfc_rhum_003.txt.gz
RH
58 56 59 57 61 65 79 84 87 90 93 89 91 89 83 78 78 71 70 79 80 72 64 68 73 71 76 82 81 78 72 69 69 68 76 80 79 80 80 79 78 77 78
57 55 55 57 56 70 78 88 90 87 89 86 86 88 85 81 75 66 64 69 87 83 71 65 71 73 72 80 82 80 77 74 71 69 75 78 79 80 79 79 79 78 78
52 48 45 45 48 60 73 78 81 87 89 87 85 81 81 77 72 77 66 66 69 87 82 74 70 78 78 77 82 80 78 76 76 74 71 78 79 79 79 79 80 78 78
42 43 40 42 45 44 48 55 65 75 78 81 88 88 75 70 63 63 71 76 67 56 74 78 75 72 82 79 79 77 74 78 76 76 76 78 78 78 79 80 79 78 78
34 32 34 37 39 33 36 35 36 47 50 54 64 62 65 76 69 65 70 74 73 71 57 67 80 78 77 83 79 82 73 73 77 76 76 76 77 78 79 80 79 79 78
29 29 29 35 34 31 33 37 39 33 36 40 41 40 52 77 82 72 73 63 66 70 71 65 50 68 82 82 82 80 81 72 72 73 76 77 76 77 78 78 80 80 79
28 31 26 28 32 31 35 40 39 41 35 34 42 43 36 46 64 70 74 78 69 65 69 70 72 56 49 81 80 81 80 78 72 75 78 77 78 77 78 79 80 80 80
30 28 30 30 31 32 38 38 41 39 38 36 37 39 43 39 40 59 64 76 70 64 67 69 73 74 64 52 72 80 81 84 79 75 77 78 79 78 78 80 81 82 82
32 32 33 33 35 36 35 38 38 40 38 40 43 36 40 44 47 33 45 56 73 81 77 72 75 70 70 66 63 76 84 84 82 76 75 78 80 80 79 79 80 80 81
31 32 32 33 36 36 40 42 33 43 46 42 40 32 44 39 42 47 35 36 55 60 90 89 75 70 72 72 70 68 86 87 86 78 74 74 80 82 81 79 80 80 81
31 30 32 35 38 36 40 47 50 51 43 46 43 42 45 40 43 43 44 37 35 47 86 90 92 84 72 67 73 73 87 93 86 81 76 74 79 80 82 80 80 81 81
36 33 28 35 38 39 39 43 49 50 50 49 46 46 44 45 41 41 42 42 38 36 37 63 85 94 93 83 76 78 87 91 91 84 80 77 78 79 81 80 80 81 80
31 34 36 43 36 35 35 37 44 48 46 46 49 44 40 39 37 37 39 40 39 34 34 36 57 68 86 93 88 89 88 94 91 88 86 82 79 79 81 81 80 79 78
31 32 34 34 34 34 35 39 40 42 45 46 49 46 39 38 36 35 35 38 42 39 36 42 35 67 83 93 92 95 89 96 96 92 89 88 86 83 83 83 80 77 75
27 30 34 36 36 36 36 39 42 45 46 50 53 53 48 43 44 43 43 38 40 46 40 35 34 36 63 80 90 95 96 94 99 97 97 95 91 87 87 86 82 78 74
34 34 34 34 34 35 37 40 43 43 48 49 44 49 48 44 43 43 43 46 42 43 48 36 32 34 48 73 83 98 97 98 100 99 97 96 96 92 91 92 92 82 78
34 34 33 34 35 36 37 40 42 43 46 47 48 49 50 48 45 44 47 50 51 46 48 42 35 35 42 65 75 83 92 97 98 100 99 96 95 96 96 96 95 95 88
37 36 35 34 34 34 35 36 40 37 41 43 45 47 46 34 47 47 45 53 52 48 45 49 41 38 42 43 48 65 78 92 97 99 100 98 95 95 98 98 99 96 92
35 34 34 36 36 36 35 37 36 40 42 44 46 48 48 49 52 48 47 48 50 41 45 47 44 39 39 39 49 59 74 82 89 87 99 99 98 95 96 99 99 97 97
37 36 36 35 37 35 34 36 36 41 45 46 54 56 55 56 57 57 56 58 48 53 52 50 46 45 43 40 44 65 97 92 97 96 99 100 100 98 96 98 99 96 95
36 34 35 36 37 35 30 38 40 47 52 57 60 58 63 66 68 68 61 66 69 65 57 55 55 54 51 48 51 64 82 88 97 96 98 99 99 98 98 98 94 95 93
33 34 36 38 39 30 51 67 64 58 62 67 76 68 62 66 66 74 76 75 70 74 83 84 69 64 58 52 47 54 75 97 96 97 99 98 99 99 99 96 94 93 90
36 38 38 39 42 45 59 67 70 65 75 78 77 77 69 54 68 64 70 77 79 78 77 67 81 80 64 53 50 56 77 87 84 96 92 98 99 99 98 98 96 93 91
38 38 42 44 49 47 67 72 76 78 84 82 79 76 77 79 75 73 75 78 71 71 71 62 64 63 66 59 67 64 70 84 97 95 89 96 98 97 99 99 98 96 96
40 41 46 55 62 68 72 76 80 94 92 87 75 76 76 81 82 77 90 95 90 87 70 75 82 75 65 65 70 76 96 95 100 98 95 87 95 97 95 99 100 97 96
41 54 62 66 70 81 78 80 84 96 99 91 86 80 80 80 87 92 97 94 93 84 72 71 82 92 93 68 70 73 96 92 90 97 92 86 93 89 94 97 98 99 100

GFSMA_sfc_rhum_006.txt.gz
RH
80 76 80 78 80 80 88 93 93 94 95 96 94 94 90 91 92 89 82 81 82 77 70 67 69 72 78 85 85 84 81 75 72 73 80 85 84 84 85 84 83 83 82
78 77 75 74 75 78 84 90 95 93 92 94 94 92 91 87 86 85 79 77 84 81 77 69 68 71 74 82 86 84 82 78 74 72 75 83 84 84 85 84 83 83 81
66 64 67 66 70 74 78 85 86 90 95 94 94 94 94 91 90 90 89 80 80 86 83 79 76 72 76 78 84 85 83 80 78 76 76 79 82 82 85 83 82 80 78
56 60 62 66 65 67 65 65 68 73 82 86 93 94 90 85 86 84 77 81 76 70 85 86 80 78 75 79 77 82 81 82 79 78 78 78 73 81 83 78 80 66 68
49 52 58 66 61 56 57 56 60 61 59 59 53 67 69 73 70 74 78 79 84 80 73 81 85 80 77 76 80 77 80 81 80 79 79 78 77 78 80 80 66 66 74
45 49 54 54 53 54 56 61 63 62 61 60 40 44 59 59 73 85 81 77 78 78 81 78 79 79 81 76 73 78 74 80 77 76 80 78 79 80 78 68 66 70 75
47 50 53 50 53 54 57 56 60 61 66 63 64 58 57 49 54 52 81 88 87 84 81 78 77 74 62 79 78 74 68 70 86 78 78 79 79 80 77 75 75 77 76
47 46 53 49 50 56 58 62 63 64 66 62 72 63 62 50 54 52 52 73 83 90 86 78 78 76 74 75 69 78 74 72 77 87 79 79 78 79 77 78 78 77 78
53 53 52 54 54 57 61 64 63 62 66 65 61 69 65 65 57 47 54 48 60 74 87 90 88 79 76 78 79 76 86 79 78 81 90 81 80 80 78 77 78 78 80
55 50 52 54 58 59 60 64 52 71 68 68 66 53 64 62 61 61 56 55 52 50 75 89 90 88 84 79 81 82 82 90 87 82 86 88 83 81 80 78 78 79 81
45 43 46 53 58 62 64 66 67 67 69 70 66 69 66 62 60 62 62 52 54 52 61 91 94 93 83 90 84 84 87 90 92 89 78 87 88 83 81 79 78 80 82
54 54 48 57 59 60 60 62 63 62 64 64 62 60 59 60 57 57 57 53 52 49 49 54 88 91 92 90 86 90 86 91 94 94 88 88 87 87 84 81 79 78 81
49 51 51 54 54 54 55 56 58 60 60 57 54 54 50 50 50 48 48 45 46 41 45 51 54 72 86 94 91 85 86 94 95 95 94 91 88 82 84 84 81 80 80
50 47 48 51 51 52 56 58 57 57 59 61 57 57 54 52 48 45 45 50 53 48 46 52 53 53 87 93 91 93 92 96 98 96 96 95 95 88 84 85 83 81 81
38 50 52 53 55 58 59 60 60 57 57 58 60 60 58 56 60 55 50 48 52 63 58 51 55 48 57 89 90 95 96 94 97 99 99 98 95 96 90 87 86 83 82
48 51 52 53 53 54 54 57 59 58 59 60 54 58 57 55 54 54 51 52 54 60 65 50 49 54 52 54 84 92 96 95 95 98 100 99 98 97 94 90 88 86 84
49 50 50 50 48 48 49 53 54 54 54 53 54 55 54 53 54 53 54 54 55 56 65 58 54 53 58 59 63 93 96 98 97 98 100 99 99 99 100 94 92 90 87
52 52 48 45 44 44 47 49 51 47 50 51 50 52 52 41 52 53 54 55 56 53 62 66 60 59 56 54 48 64 82 90 96 92 100 100 99 99 100 100 98 95 92
51 48 44 48 47 49 47 48 47 48 49 50 51 52 52 53 56 56 56 57 57 49 57 65 64 58 55 63 62 59 61 86 94 89 92 100 99 99 99 100 99 99 97
53 50 49 48 50 45 42 43 41 46 49 49 57 61 62 64 67 66 63 64 59 66 69 75 68 63 60 55 65 71 70 95 96 87 89 99 98 99 99 99 100 99 98
50 49 47 48 50 46 37 46 52 58 60 62 64 62 64 65 66 69 67 72 70 70 73 83 82 76 69 66 70 73 77 83 98 95 93 92 99 98 97 99 98 99 99
52 49 52 52 53 39 56 69 74 70 69 70 74 71 68 67 68 70 72 73 73 78 78 88 89 97 89 80 70 79 83 94 90 99 99 97 99 99 99 99 98 100 99
56 56 55 55 55 55 64 71 73 75 78 78 78 78 73 61 70 68 72 75 77 77 78 74 74 71 78 80 84 89 92 94 89 99 98 99 99 100 99 97 99 100 99
57 55 58 59 61 58 70 72 74 76 82 84 84 81 81 81 78 77 77 84 87 82 75 72 76 70 65 61 68 74 92 96 98 99 95 99 98 99 99 99 96 97 99
55 56 60 68 70 73 73 74 77 84 95 93 85 82 81 81 78 78 88 97 94 87 74 81 76 74 71 70 66 72 90 98 99 99 99 94 98 97 98 98 99 96 98
53 69 66 76 77 78 75 77 81 92 97 94 84 89 86 94 92 89 91 96 96 90 86 79 76 79 80 81 85 86 76 84 98 99 99 97 96 96 97 99 98 99 99

GFSMA_sfc_rhum_009.txt.gz
RH
92 91 89 87 92 94 93 96 97 96 96 95 96 97 96 92 92 91 88 89 86 79 74 71 68 70 78 87 87 86 86 85 83 82 87 88 87 87 88 88 88 86 85
86 85 87 84 88 90 94 94 95 92 98 97 97 96 96 96 93 89 90 88 91 86 81 74 72 70 71 81 88 86 86 85 84 83 85 88 88 86 88 88 86 85 84
68 71 73 78 78 82 87 88 90 91 94 94 94 97 95 93 97 94 93 91 91 94 90 83 78 74 74 73 84 88 85 85 84 82 82 85 88 86 86 87 85 84 83
64 67 71 73 62 69 70 58 68 65 73 71 79 87 96 88 84 81 91 94 92 89 95 90 84 80 76 71 74 80 86 85 84 81 80 81 86 86 85 86 84 83 82
53 56 69 64 57 65 63 58 60 65 64 64 57 54 58 61 66 55 69 80 91 89 90 93 92 87 83 78 72 70 70 85 85 81 80 81 82 85 84 85 84 76 69
52 51 62 66 57 60 66 62 60 65 67 67 54 54 61 68 67 69 78 68 75 89 91 85 86 89 90 85 80 74 71 72 84 82 81 81 81 82 82 82 81 77 68
50 50 55 61 62 60 62 59 65 62 63 68 71 69 65 60 56 58 71 79 87 65 95 94 94 88 83 88 83 77 70 64 68 80 84 82 81 81 81 81 80 78 69
55 52 55 55 54 58 55 59 70 70 71 67 73 73 74 63 61 58 55 67 69 79 60 67 90 92 88 80 84 78 74 66 62 71 84 87 82 81 81 79 74 72 75
56 56 56 61 60 62 63 66 63 62 69 71 65 71 75 72 69 60 60 62 64 72 74 73 76 80 76 92 86 86 87 85 77 73 74 86 90 87 84 79 76 75 77
59 58 57 61 64 67 65 70 66 73 72 77 75 61 72 74 72 69 66 62 61 57 73 80 80 77 81 94 95 97 90 86 89 84 82 77 84 90 86 83 79 78 79
60 56 58 59 65 70 64 64 66 69 76 78 77 78 73 70 75 69 67 56 59 60 63 76 85 94 87 83 86 85 95 95 91 87 88 88 79 83 87 89 81 78 79
57 54 51 58 60 59 57 59 59 56 62 67 70 71 67 64 59 61 63 57 54 54 59 58 70 84 89 92 87 86 92 92 93 91 89 91 91 87 80 93 89 80 79
57 52 52 53 54 54 55 54 56 60 62 65 67 62 65 60 56 53 53 52 50 42 42 48 52 54 62 89 91 86 82 82 87 90 92 94 95 94 94 87 90 91 80
58 55 57 58 56 57 60 65 62 54 65 69 68 72 62 60 56 56 57 59 60 54 49 47 62 64 72 78 81 93 95 93 96 96 96 96 96 96 95 97 87 91 88
50 59 62 62 68 73 71 60 68 68 69 67 70 72 70 64 66 60 59 58 65 72 64 54 52 48 46 75 88 91 96 97 96 97 100 98 97 97 97 96 98 90 92
58 66 73 79 75 67 60 61 62 64 68 70 64 74 68 64 66 70 66 66 67 72 75 56 54 60 59 62 71 80 88 94 96 97 98 99 99 99 98 98 97 98 90
63 70 70 69 61 56 54 57 62 62 66 65 67 65 65 64 65 64 64 61 61 61 68 60 53 53 64 63 63 75 84 93 96 99 100 100 100 100 100 99 99 99 99
61 57 60 56 54 56 58 62 62 60 58 58 59 68 62 48 59 60 62 62 61 60 65 67 58 59 67 68 67 68 62 85 95 96 96 97 98 100 98 100 100 100 99
62 61 52 61 60 61 60 62 58 56 55 58 58 60 58 59 60 62 65 66 65 57 69 77 77 75 76 77 70 73 75 80 95 90 93 99 98 98 100 99 98 98 100
61 62 60 62 65 58 51 52 49 54 61 61 71 75 75 76 77 75 70 72 68 73 72 74 72 68 71 71 81 74 80 82 82 96 95 96 100 99 97 97 98 99 100
59 62 63 62 63 57 44 55 65 74 78 79 79 74 71 71 67 70 65 68 69 73 74 75 76 72 71 78 82 84 86 87 87 92 96 96 96 96 94 92 96 97 98
64 60 63 66 68 48 62 77 76 84 83 81 82 74 71 69 71 74 74 75 73 77 79 77 78 80 78 77 92 96 99 94 96 99 100 98 99 98 96 91 87 96 94
63 65 66 66 70 73 71 70 70 72 78 81 82 83 79 67 75 73 75 76 76 77 77 79 85 79 76 70 72 92 93 99 98 95 99 98 100 99 98 95 93 96 97
64 65 68 72 77 66 72 74 75 78 84 84 84 84 86 86 83 82 81 82 80 76 77 71 79 80 76 72 69 67 77 93 98 98 98 99 100 99 99 99 92 95 97
64 70 70 76 81 87 78 78 79 86 90 89 85 86 83 94 84 82 85 96 93 86 75 80 80 78 78 78 75 80 84 84 86 88 99 99 97 98 100 99 98 94 98
64 77 74 86 83 88 80 76 75 88 95 90 85 82 80 82 83 88 94 97 96 89 84 88 84 81 80 83 88 82 93 94 87 96 98 98 96 94 98 99 99 98 99

GFSMA_sfc_rhum_012.txt.gz
RH
96 96 95 92 95 97 97 97 96 95 94 96 96 96 97 96 96 94 87 86 88 83 78 76 72 73 77 84 84 85 86 86 85 85 88 89 90 90 90 90 90 89 88
94 95 95 94 95 95 95 94 94 93 95 96 96 96 98 98 95 94 97 93 89 87 83 77 76 75 72 77 85 86 85 85 86 85 87 89 90 90 90 90 90 90 88
76 84 86 90 89 92 91 89 86 84 84 84 77 83 94 93 89 90 97 97 95 92 92 88 85 82 77 74 80 84 86 85 86 87 88 88 88 89 90 91 90 90 88
71 74 78 76 73 81 82 65 68 63 67 69 74 73 81 72 68 70 76 86 94 95 93 94 91 88 85 80 75 74 80 87 85 83 85 88 89 88 88 90 90 89 87
64 67 78 72 64 71 70 63 65 66 65 65 61 63 63 61 65 56 60 71 90 90 89 90 94 94 92 87 83 76 72 77 88 85 83 87 89 89 87 88 89 88 86
60 62 72 70 63 69 70 69 62 70 68 65 55 57 66 62 66 66 64 66 79 86 73 93 94 96 96 92 88 83 77 71 73 77 90 86 86 87 88 86 86 86 83
61 59 64 68 69 66 68 67 66 68 66 72 70 71 69 67 62 53 68 76 77 71 83 71 84 94 93 91 94 90 85 80 73 72 78 89 86 84 87 87 85 84 83
63 58 61 64 66 70 68 69 71 74 73 74 73 79 74 64 65 64 60 65 73 77 72 66 74 74 83 87 93 91 86 79 76 71 74 78 89 84 86 86 85 84 83
61 61 60 66 65 69 68 64 67 68 71 77 71 73 81 80 69 62 65 65 65 74 77 76 69 66 79 86 86 92 86 83 87 73 73 74 77 90 91 86 84 83 82
59 62 63 67 68 73 71 74 71 78 78 76 80 70 78 85 83 67 67 62 62 59 74 77 72 66 70 85 91 87 85 78 79 91 81 80 80 80 88 92 87 82 81
64 64 68 69 77 77 69 62 60 60 68 73 73 77 73 77 81 77 62 47 46 55 64 79 83 84 66 65 70 85 89 92 85 89 89 84 85 82 81 88 94 88 80
73 70 62 62 63 61 61 64 61 61 63 62 63 69 72 73 62 70 66 59 54 46 44 51 58 68 72 74 64 71 87 90 86 79 88 88 86 85 88 85 94 92 87
62 63 61 65 65 70 72 74 75 76 68 68 64 61 61 64 66 66 69 66 66 56 53 55 57 61 62 81 81 75 74 89 86 87 84 86 90 91 92 93 89 95 91
65 64 69 76 77 79 82 83 86 83 77 71 65 66 66 64 63 60 64 72 76 66 56 54 55 59 56 67 73 78 79 93 93 96 97 96 95 95 95 95 95 93 96
63 74 80 85 90 88 88 87 81 72 70 70 68 70 72 69 76 71 71 70 72 83 75 63 62 56 60 66 73 84 90 93 97 97 97 98 96 95 94 92 93 94 93
76 81 87 90 92 86 75 70 72 71 72 72 70 76 72 69 69 68 67 71 71 72 78 58 52 52 56 53 61 65 80 77 86 94 96 98 98 98 98 98 95 94 86
77 83 86 80 76 76 72 71 68 68 72 71 73 71 68 68 68 72 74 69 70 72 77 66 60 58 61 63 63 71 69 75 81 97 96 98 98 98 97 99 99 98 98
70 71 72 68 69 68 65 67 71 66 70 66 67 66 63 52 63 67 73 67 66 65 69 71 63 62 64 66 72 76 68 64 78 75 84 98 98 98 97 99 99 98 99
59 63 63 65 66 67 67 68 68 65 66 62 63 66 68 71 76 79 80 83 82 67 75 79 78 75 72 81 71 72 75 77 72 69 81 91 98 99 99 98 98 98 97
65 64 65 66 70 68 62 62 60 67 74 72 77 78 76 74 74 74 72 72 68 73 72 74 75 73 70 65 78 81 84 87 82 66 78 92 96 98 99 99 97 96 97
61 66 68 67 68 64 51 69 80 83 84 83 79 76 74 73 68 72 70 73 73 75 74 73 74 72 68 68 76 80 89 95 93 88 84 89 99 98 96 91 92 92 92
64 62 64 68 69 54 69 74 78 83 73 72 79 76 73 72 73 73 77 78 77 82 82 79 77 80 79 77 77 85 88 93 93 97 99 98 98 98 96 97 90 91 94
63 63 64 68 72 74 69 68 74 76 83 84 85 85 81 70 76 76 78 80 80 80 81 80 84 82 83 78 78 92 91 91 88 89 99 98 99 99 98 97 93 93 94
62 65 69 71 75 69 73 73 77 82 88 86 86 86 86 80 77 77 80 90 82 80 80 74 77 82 77 78 79 76 80 82 85 87 98 98 96 99 99 98 90 90 92
67 68 70 80 86 87 77 76 78 87 88 92 85 83 84 84 81 76 82 95 95 90 77 80 80 77 77 79 82 85 96 97 95 88 96 94 91 99 99 99 97 88 89
66 80 83 84 81 88 81 75 75 88 96 92 87 83 80 83 83 86 95 96 96 90 85 84 84 83 82 84 84 96 95 95 94 98 95 96 98 98 96 98 100 99 100

GFSMA_sfc_rhum_015.txt.gz
RH
97 97 97 97 96 98 97 98 97 96 95 95 96 95 94 98 98 99 98 90 87 77 80 79 73 71 72 79 85 85 83 83 83 84 87 89 90 89 90 91 91 92 90
96 96 96 96 96 97 96 95 93 92 93 93 90 88 93 97 95 92 94 91 88 83 78 76 80 80 74 74 79 84 86 84 82 84 83 87 90 90 90 91 92 92 90
88 94 96 96 96 95 93 90 86 76 76 75 69 75 86 89 78 76 81 86 92 90 90 86 72 73 80 78 80 80 81 88 88 84 84 85 88 90 91 92 92 92 90
78 83 85 89 85 91 88 67 70 65 68 71 73 73 68 66 63 67 68 78 88 94 93 82 79 78 82 81 78 76 76 79 86 92 86 85 86 88 90 91 92 92 91
77 79 82 81 75 79 80 66 68 67 64 65 61 66 66 64 63 58 56 64 73 84 90 78 72 80 76 82 86 82 78 78 79 82 89 86 85 85 88 90 91 91 90
74 70 78 80 72 75 76 73 66 74 70 67 55 58 68 66 67 68 66 64 71 74 70 86 80 87 78 76 75 82 88 82 80 78 79 94 87 86 87 88 89 90 90
72 71 72 77 74 73 70 72 70 68 74 75 73 72 71 69 65 62 69 75 75 73 77 77 83 86 82 76 70 60 56 87 92 91 83 85 95 93 88 87 88 89 89
71 68 65 68 72 73 73 76 74 79 76 81 72 82 76 71 66 64 65 69 74 80 75 70 78 74 80 81 83 75 71 63 80 88 88 91 88 94 94 91 88 88 88
69 69 63 60 68 71 69 72 76 74 74 79 76 74 81 79 85 69 66 69 73 77 78 77 69 64 72 84 86 86 76 67 57 74 76 81 88 88 93 95 92 88 86
62 65 62 62 64 70 76 74 73 80 80 78 79 74 75 82 76 68 66 61 54 62 73 78 75 74 70 79 68 71 81 82 71 50 63 70 64 90 85 86 94 92 86
69 65 65 61 67 76 76 74 69 65 69 69 65 69 72 81 83 86 57 46 53 58 64 76 82 83 67 62 67 71 77 85 87 66 52 57 69 63 84 81 81 87 95
72 77 75 76 70 68 72 74 67 66 67 68 71 75 72 68 69 74 81 61 63 60 62 64 69 76 77 76 62 70 71 75 78 85 67 59 70 76 68 84 84 82 88
76 75 72 69 76 79 85 85 87 82 82 82 79 80 77 77 70 73 80 75 71 60 65 66 66 64 62 79 78 70 70 78 80 86 86 84 86 86 89 88 89 90 85
81 83 86 84 87 86 88 90 93 94 95 96 94 84 71 74 73 69 72 79 78 69 62 65 63 64 65 73 68 75 79 86 83 81 94 92 88 88 90 91 92 85 89
78 91 93 94 90 88 92 95 94 90 86 82 81 79 79 78 81 78 75 77 78 81 70 61 66 62 67 76 77 71 68 74 78 76 76 82 92 90 90 90 91 91 88
88 93 90 89 90 91 93 92 84 77 79 81 75 79 80 78 79 80 75 74 74 79 82 66 60 67 65 54 69 77 78 73 77 80 82 83 93 98 97 98 95 92 88
87 88 77 76 87 85 81 78 79 75 74 76 73 74 73 71 72 75 77 74 75 73 78 66 66 61 66 66 61 67 70 77 82 82 84 94 97 98 98 99 98 97 97
70 66 72 76 76 75 75 73 75 70 72 71 71 73 70 55 67 76 79 78 75 69 72 73 64 66 68 67 76 84 69 67 80 73 80 81 86 93 97 98 97 98 99
63 63 69 73 70 72 71 72 72 72 72 73 74 75 74 77 79 82 82 83 83 70 75 80 78 75 77 76 73 72 76 74 68 65 71 76 82 87 96 98 99 98 98
66 66 67 69 73 68 64 65 65 72 79 77 80 80 80 80 80 78 75 74 69 74 73 75 74 73 70 65 72 76 80 82 82 68 69 75 78 81 94 98 98 98 97
72 70 69 67 68 62 53 74 79 81 80 81 80 76 75 75 69 69 70 76 77 80 79 76 74 74 73 75 78 76 84 85 88 95 92 87 89 94 97 98 98 96 91
71 62 62 66 68 55 69 71 75 85 83 80 80 76 77 75 77 76 76 79 80 83 87 88 88 86 78 77 79 81 88 91 92 94 97 97 98 98 95 98 93 92 91
63 63 64 68 72 73 68 70 75 82 88 86 88 88 82 74 77 78 78 80 81 82 83 84 92 87 82 77 81 88 86 87 88 87 98 91 100 98 94 95 92 92 91
64 65 67 72 79 73 70 71 73 86 90 88 88 88 86 88 84 76 76 84 82 78 74 74 85 79 82 79 76 84 84 85 84 87 95 95 87 90 99 97 90 90 92
65 68 73 82 83 83 74 72 75 92 92 90 86 86 87 86 84 81 88 95 91 86 75 80 79 79 79 79 81 88 96 97 94 90 96 91 89 89 94 94 95 86 90
69 82 80 83 79 86 79 76 78 92 96 92 88 80 76 76 82 85 93 96 96 86 82 82 84 84 85 85 85 88 95 94 94 98 95 95 96 98 98 98 99 99 100

GFSMA_sfc_rhum_018.txt.gz
RH
98 98 98 98 98 98 97 98 97 97 95 93 94 95 96 98 95 95 91 74 70 63 65 67 73 74 73 74 80 83 82 80 81 84 84 85 86 88 90 91 91 90 90
97 98 98 97 97 98 97 95 92 90 90 88 78 77 79 95 78 75 81 78 75 77 76 66 66 67 68 75 78 82 81 82 82 84 84 86 85 86 87 92 92 92 91
95 95 98 97 97 97 94 94 92 80 77 75 68 73 79 78 71 71 75 80 84 84 74 69 55 56 60 68 75 78 80 83 83 84 87 86 86 85 86 89 91 91 92
87 93 97 97 96 97 96 81 73 68 69 70 72 69 67 66 63 65 65 74 79 83 77 66 62 58 58 58 66 76 76 78 81 83 85 90 88 86 85 84 87 90 92
86 86 89 90 92 89 96 77 72 69 68 68 66 68 69 68 63 56 59 64 69 73 78 74 65 67 64 60 65 66 70 77 79 76 80 85 91 93 87 84 83 86 90
80 86 86 85 84 83 86 80 71 76 70 68 54 60 70 70 70 70 63 62 68 70 70 73 79 80 65 56 54 60 60 59 81 82 84 86 89 93 94 91 84 84 86
80 82 78 83 85 77 72 76 75 71 78 81 74 71 72 72 72 69 70 71 69 68 72 74 79 78 69 60 62 63 63 69 59 66 81 83 84 89 90 96 94 84 83
81 77 76 72 79 76 78 77 76 80 77 83 74 80 72 69 68 69 68 67 69 77 68 65 72 69 70 75 72 55 51 50 56 50 58 73 81 83 88 92 93 92 90
67 80 73 70 70 74 70 68 71 75 69 86 80 72 84 79 80 69 69 65 71 68 73 70 64 65 70 78 72 71 62 60 62 62 54 59 70 77 80 89 93 95 96
66 69 76 74 70 70 71 74 74 79 79 82 85 76 73 77 60 54 59 65 53 55 64 70 71 66 68 74 67 67 72 77 65 54 58 57 61 70 77 80 89 90 95
69 68 70 73 78 79 77 76 78 77 71 76 64 71 72 76 77 66 68 56 55 57 60 71 77 80 74 70 72 68 73 76 74 64 61 62 57 64 77 79 78 91 88
81 80 80 86 86 82 77 71 72 71 76 76 80 80 77 79 74 78 84 73 66 58 62 64 71 74 75 76 63 68 72 76 78 75 70 80 69 58 62 82 83 84 91
83 88 86 88 89 91 91 91 87 89 90 94 93 94 93 94 96 97 98 81 76 66 66 70 68 69 63 79 78 71 69 77 78 70 66 60 72 73 65 72 78 76 83
92 93 93 94 94 95 96 95 96 97 97 98 96 96 96 91 87 82 73 79 74 66 65 69 67 67 69 72 75 74 79 77 74 73 75 72 71 75 80 80 78 78 82
87 95 94 95 94 92 90 92 95 94 94 94 93 94 91 84 83 78 75 78 78 75 65 62 68 69 68 71 75 79 80 75 77 80 79 74 72 75 83 86 81 86 88
94 94 92 89 89 86 90 93 95 92 91 88 83 83 80 78 77 79 78 79 82 80 80 65 64 70 67 53 69 76 77 67 67 73 79 82 82 84 87 97 95 93 87
93 92 84 79 79 78 88 93 88 81 78 76 74 76 76 75 79 80 83 80 79 80 82 68 67 66 70 72 63 73 73 76 84 83 82 82 82 86 88 94 96 98 95
74 71 73 73 76 80 79 78 77 75 75 73 72 74 74 57 73 78 81 82 83 78 79 79 69 72 71 68 68 73 68 66 75 67 74 72 72 75 78 88 94 98 99
73 77 74 72 71 74 73 71 69 71 72 74 77 80 79 79 79 81 79 79 77 68 74 77 73 67 71 77 72 72 73 74 69 66 70 74 76 75 76 82 93 96 98
84 82 75 74 72 66 62 63 63 72 78 78 79 79 79 78 76 74 72 73 70 75 74 76 74 72 71 69 73 76 79 79 79 63 65 69 72 75 79 80 87 92 97
79 75 66 66 67 62 52 75 77 79 78 77 79 76 74 74 67 68 69 76 79 83 79 78 80 78 76 79 82 75 78 79 81 83 83 83 88 86 82 86 89 93 96
86 66 64 68 71 57 71 71 77 86 83 83 83 78 75 72 78 76 76 77 81 84 87 90 86 82 76 75 75 81 86 87 88 85 84 86 92 90 93 93 93 94 97
66 66 66 69 71 74 69 66 68 77 86 88 90 86 80 72 77 70 72 72 74 81 84 88 92 86 85 76 74 83 87 84 82 77 88 91 94 97 93 89 89 91 93
66 66 69 74 80 69 67 69 71 83 88 88 87 85 87 87 76 77 80 91 87 80 76 72 74 77 76 76 79 81 83 86 84 79 88 93 84 87 88 90 85 85 89
68 70 74 80 80 78 72 72 77 93 93 92 85 87 88 86 76 76 85 94 90 85 75 77 81 86 86 81 81 89 96 95 93 87 90 88 85 86 85 86 90 80 82
71 82 77 79 78 85 78 79 78 91 96 93 78 76 77 81 84 85 90 96 96 93 93 89 88 84 85 91 92 93 95 94 91 94 89 90 84 84 92 90 89 91 93

GFSMA_sfc_rhum_021.txt.gz
RH
79 75 76 73 73 72 69 72 72 69 68 64 66 63 61 68 53 37 35 67 69 64 63 64 65 67 68 72 76 77 78 80 80 81 86 87 85 86 86 89 92 92 89
76 72 72 70 70 69 66 74 71 57 54 56 48 50 52 59 41 45 36 43 81 66 62 56 54 56 58 62 70 77 79 80 84 82 86 87 88 90 92 88 92 93 90
72 74 71 70 67 68 77 71 65 58 48 47 47 48 51 53 45 45 42 42 48 71 64 65 55 55 56 57 62 69 72 81 81 80 85 87 88 88 87 87 89 90 90
71 72 68 69 68 72 71 68 61 52 45 42 42 38 40 41 45 44 39 39 40 35 55 60 58 57 56 55 55 60 64 67 77 83 83 86 89 89 89 87 87 89 90
68 67 62 63 71 70 72 69 61 55 45 41 39 40 43 39 42 32 40 44 43 40 36 59 62 61 55 51 51 56 61 60 70 76 86 84 86 88 91 90 88 86 89
64 64 60 64 65 64 67 68 67 54 46 42 33 35 44 42 42 42 39 36 37 45 41 44 39 36 55 44 48 52 55 63 62 58 69 76 82 86 90 94 94 93 87
56 64 58 60 64 63 62 66 64 64 53 51 48 45 46 50 51 43 42 40 38 36 46 42 34 30 27 47 56 52 52 50 50 55 52 60 71 80 84 87 88 92 91
53 56 61 57 60 60 66 66 66 56 54 52 46 45 44 42 46 47 43 42 50 39 42 35 38 31 30 26 39 51 53 54 52 53 56 56 56 66 76 80 85 88 92
50 53 55 58 59 61 60 64 64 64 54 51 56 44 49 47 40 46 53 44 45 47 37 36 32 33 31 31 41 47 57 61 55 53 51 50 59 58 65 73 80 84 86
53 53 56 58 62 60 62 62 58 63 61 54 56 52 56 51 47 45 43 45 45 38 40 35 35 35 35 36 46 60 69 69 62 55 56 59 58 60 59 64 73 76 82
54 56 58 61 63 61 64 66 66 68 59 64 55 55 61 51 51 45 44 40 37 38 38 40 40 39 40 36 33 46 69 75 70 66 62 60 64 72 63 61 68 76 77
55 60 60 66 68 68 68 64 66 66 63 61 59 57 58 53 50 51 54 53 54 52 42 40 42 40 38 37 39 64 71 75 71 65 55 54 57 59 73 62 60 70 78
54 60 66 69 68 70 70 69 74 77 77 83 89 93 93 96 96 97 98 90 76 50 43 40 39 39 38 39 39 65 62 74 74 68 60 62 60 58 61 64 68 68 73
61 71 71 71 71 72 73 76 88 92 93 96 96 96 97 96 95 94 94 94 82 59 46 47 35 37 37 38 45 70 42 70 75 75 73 64 58 58 62 68 68 76 70
65 74 72 71 72 72 78 85 92 92 90 89 90 90 90 86 87 85 77 69 71 64 46 38 35 35 37 37 44 46 44 54 77 76 72 68 64 71 72 73 77 89 84
72 74 71 71 72 68 72 72 74 75 78 79 78 82 80 70 66 65 60 58 52 50 46 33 32 36 39 33 39 46 45 63 62 72 72 74 81 75 71 73 74 77 82
74 72 64 62 66 72 69 68 70 68 67 64 62 60 58 56 52 49 48 46 45 46 51 42 38 40 46 46 42 43 45 46 46 69 80 83 79 77 75 74 73 79 82
69 73 80 87 87 79 62 58 60 58 55 52 49 50 48 38 49 51 51 53 52 49 51 54 44 44 47 47 48 49 41 34 39 52 78 76 72 70 72 74 75 80 88
85 84 81 71 65 64 54 50 48 48 48 49 51 54 54 57 55 51 51 50 47 41 47 50 48 44 44 43 46 47 49 49 40 54 65 70 72 72 72 75 79 79 88
70 66 67 57 55 48 44 45 46 51 52 52 55 54 54 55 54 52 49 50 48 51 51 52 51 50 50 49 50 54 56 55 57 46 53 60 65 66 72 73 76 81 84
70 75 78 57 56 50 42 55 51 54 54 54 54 52 54 56 65 63 54 54 55 60 66 70 68 58 56 57 63 57 58 56 59 58 60 61 60 59 59 69 70 74 79
74 55 52 54 54 44 69 68 64 52 52 55 58 54 53 62 60 69 74 73 72 76 76 75 68 67 58 55 56 63 72 74 74 62 68 71 64 66 60 59 67 87 92
53 52 52 53 55 57 64 65 66 57 61 61 60 59 54 50 64 61 69 75 80 81 80 72 78 68 64 59 59 69 73 72 66 56 68 78 70 74 67 69 80 87 87
52 52 54 56 55 50 65 68 71 65 69 65 63 61 64 69 70 73 75 79 70 68 70 66 70 66 62 58 59 60 68 72 70 60 66 91 78 83 73 67 72 72 78
53 54 54 56 56 60 65 73 76 76 76 73 66 66 66 72 74 83 88 94 79 69 64 76 78 79 78 78 75 79 91 89 89 71 72 84 78 78 73 82 85 76 82
54 59 58 58 66 72 72 78 74 78 84 74 70 65 72 76 86 89 97 91 89 71 65 66 65 66 78 77 82 96 90 89 78 72 62 71 62 58 75 77 77 83 86

GFSMA_sfc_rhum_024.txt.gz
RH
53 52 51 49 46 44 44 47 45 46 47 45 42 41 38 41 43 29 28 63 68 62 57 56 58 62 65 68 73 78 77 77 80 79 83 85 87 87 89 89 91 93 92
55 49 46 42 40 40 40 44 46 44 39 38 37 36 32 34 32 32 23 38 74 60 56 52 53 54 55 57 64 68 72 76 78 80 81 84 86 87 88 88 90 92 93
52 53 43 41 36 39 52 52 50 47 43 35 34 32 32 38 32 33 29 28 42 65 65 52 51 52 54 55 58 63 66 71 77 80 80 86 86 87 92 94 92 92 91
53 51 42 41 40 42 43 44 44 42 41 36 33 28 29 30 34 34 30 29 27 24 60 55 54 52 51 50 50 53 59 60 64 80 84 83 86 89 90 91 94 89 87
48 50 43 42 45 43 43 44 43 46 42 36 30 29 30 29 30 26 30 33 34 29 26 59 57 54 47 43 46 50 56 60 62 62 73 78 82 86 90 93 91 89 88
41 45 41 44 44 44 42 42 48 43 43 39 28 26 30 31 30 30 30 27 32 35 32 32 34 35 46 38 42 44 49 54 60 60 54 62 68 77 83 87 92 94 92
39 44 40 41 43 46 49 49 46 52 49 43 44 38 34 35 40 34 31 30 30 32 34 33 31 24 29 42 46 42 45 48 49 48 53 55 53 62 71 79 84 87 90
40 39 44 43 44 44 49 52 55 52 48 45 47 42 41 34 34 37 34 32 38 30 29 36 32 32 28 24 34 42 46 47 48 50 48 52 60 58 60 65 74 81 85
39 40 42 44 47 47 46 49 51 54 53 48 48 49 44 43 36 31 42 37 38 37 33 32 33 30 31 28 36 42 54 48 48 50 51 52 53 52 59 60 63 70 77
38 38 41 45 49 46 49 48 43 52 53 53 48 43 50 48 46 49 43 40 38 38 42 34 30 32 33 30 42 55 61 61 57 49 50 54 55 59 59 61 60 62 68
35 34 40 48 51 48 49 55 58 58 53 54 52 52 60 52 51 60 49 47 40 36 35 36 35 35 35 35 32 42 61 68 67 57 59 54 55 57 59 66 63 61 60
32 35 38 50 53 55 56 56 59 61 60 61 60 60 63 67 65 64 59 52 54 46 34 36 39 39 38 36 38 56 62 70 72 62 60 53 52 56 59 61 71 63 60
37 42 49 53 52 58 59 64 70 74 82 86 90 92 92 95 95 96 96 92 83 67 59 48 40 37 34 38 38 52 62 71 71 69 59 58 57 56 56 57 62 66 68
44 51 55 57 57 58 62 68 73 90 90 95 96 96 96 95 94 94 95 97 96 90 65 70 43 36 34 35 42 61 40 62 72 72 68 66 61 57 55 58 62 64 68
45 55 60 58 62 69 66 66 77 77 80 80 77 78 76 80 84 87 84 84 89 80 56 39 36 32 29 32 39 37 40 52 68 73 77 74 62 55 55 63 68 68 69
56 61 68 66 71 78 80 79 78 78 73 71 68 72 70 66 65 62 63 58 56 52 47 32 28 28 28 22 33 36 37 56 59 75 75 73 69 62 68 71 66 65 63
65 66 75 84 88 89 84 77 73 66 62 59 55 52 48 42 39 37 37 38 40 38 40 34 28 30 34 37 35 37 38 38 38 70 72 72 73 79 81 76 73 69 66
72 84 91 84 68 60 64 64 55 49 47 45 44 43 41 30 40 40 37 41 40 37 38 43 35 33 36 36 38 41 34 28 32 42 73 71 76 82 79 77 75 74 74
69 67 61 56 51 49 45 43 41 43 44 43 42 42 42 43 46 43 42 40 38 31 36 38 38 34 34 33 36 37 38 39 31 47 63 72 72 71 70 70 72 74 74
54 54 57 63 65 52 44 41 41 44 44 42 46 46 45 47 48 46 42 43 38 40 40 40 39 38 36 36 37 40 43 39 40 30 42 52 58 61 70 75 79 80 81
53 53 54 46 44 42 33 49 45 45 43 42 44 42 45 49 59 60 51 49 46 44 42 47 57 53 49 47 48 46 50 49 51 47 51 51 50 46 47 66 62 66 73
40 41 42 44 45 34 67 65 62 46 43 43 46 44 43 54 50 68 70 73 69 65 67 69 65 66 59 55 51 55 60 65 73 58 62 65 62 63 50 44 59 72 77
42 43 43 44 46 46 62 64 66 50 50 50 49 46 40 34 56 54 66 72 74 77 81 70 75 66 61 56 55 63 67 69 64 52 64 81 76 71 68 53 70 76 83
44 44 45 46 47 41 62 64 69 58 56 52 50 47 50 59 61 67 71 71 71 65 66 65 70 60 57 61 62 61 64 66 67 60 65 86 79 81 69 70 70 74 80
44 44 45 48 49 52 65 68 72 67 64 62 58 60 62 69 70 81 86 89 71 64 55 66 70 75 76 75 74 74 90 83 89 69 64 71 76 81 70 80 78 71 75
43 50 55 56 61 63 66 70 68 73 86 75 69 63 70 69 83 89 94 96 90 65 62 68 67 68 70 72 82 82 83 87 82 78 58 70 70 65 80 74 71 80 80

GFSMA_sfc_rhum_027.txt.gz
RH
47 44 44 41 39 37 36 38 38 38 42 42 39 38 36 35 36 33 27 64 59 58 57 57 58 62 64 66 69 74 76 76 76 77 83 84 85 85 84 86 88 90 93
48 44 42 38 36 33 33 37 37 38 39 36 36 36 36 30 28 34 24 39 71 60 57 52 53 54 54 58 64 66 68 72 76 78 80 84 85 86 87 85 90 90 93
44 46 40 39 35 35 45 40 41 40 39 36 35 34 31 35 32 33 28 26 44 66 66 53 52 51 53 54 54 59 64 64 70 80 81 83 86 87 88 89 88 89 89
44 46 40 40 38 42 40 39 39 39 38 36 37 33 30 29 31 35 31 30 26 26 60 62 54 52 50 48 47 50 57 59 68 74 83 84 84 87 90 91 91 94 92
39 42 41 40 44 40 42 42 41 44 42 40 36 34 34 30 32 25 32 36 37 30 27 66 65 58 52 44 43 46 50 57 61 58 64 72 78 83 86 91 94 93 94
37 40 39 42 42 40 42 43 51 44 45 44 35 34 38 33 32 34 31 28 31 38 35 37 43 40 58 44 41 43 48 49 53 57 54 53 58 67 75 81 86 92 94
38 43 38 39 43 42 47 52 51 55 52 48 53 47 44 43 43 35 35 33 32 32 39 36 34 30 35 52 43 43 44 47 48 48 48 55 55 55 60 66 76 80 85
39 38 41 39 39 40 48 52 55 52 52 51 58 58 57 46 39 38 37 38 44 33 33 38 37 37 30 31 43 47 42 43 44 46 49 49 52 58 61 61 62 68 76
38 40 39 40 45 46 44 50 50 53 51 49 53 59 63 58 46 37 47 42 45 41 38 36 39 38 35 31 49 48 59 48 44 46 47 50 51 54 55 56 60 62 65
35 33 33 37 43 46 51 50 40 53 54 53 48 42 56 66 71 66 49 56 47 47 49 41 36 40 36 32 44 59 68 53 49 47 46 48 50 54 55 59 60 62 61
32 30 33 39 46 48 52 56 57 56 51 53 51 63 68 63 62 79 85 59 67 50 49 50 46 40 36 35 35 46 66 67 62 54 50 48 52 52 54 56 56 60 62
34 36 34 42 49 49 51 53 65 67 69 67 67 69 76 83 76 85 81 74 76 82 72 74 61 47 45 44 42 68 65 69 72 62 56 56 53 52 53 56 58 60 67
37 37 42 48 47 53 65 65 66 70 70 78 85 89 93 95 96 96 97 98 97 94 91 81 73 51 44 51 48 56 65 66 70 68 64 61 57 56 56 55 56 60 64
40 44 47 58 68 77 77 80 87 81 81 94 92 90 88 84 82 89 95 97 96 92 75 89 76 76 62 46 54 59 42 73 73 74 71 63 60 60 59 57 56 57 62
41 52 71 79 82 78 78 85 88 89 88 75 82 88 86 83 83 85 85 84 95 87 64 48 55 55 69 57 46 43 44 57 71 71 74 74 67 64 61 58 56 58 63
62 65 76 77 76 79 79 75 84 81 86 89 87 84 76 70 68 65 64 67 74 82 80 46 41 41 38 27 34 35 36 58 64 75 77 77 76 70 65 62 59 64 66
59 62 65 73 72 65 60 62 63 60 61 59 57 59 55 50 45 41 43 50 54 54 57 46 36 37 41 41 35 39 38 41 43 66 66 72 74 72 70 71 73 79 71
57 59 65 64 57 54 47 47 50 45 45 46 49 48 39 28 40 40 38 39 39 37 40 46 38 38 41 40 42 45 32 26 35 43 76 73 72 72 76 77 85 80 77
60 61 62 64 54 46 45 45 42 41 40 39 39 39 38 40 43 41 41 41 39 31 38 39 40 36 37 36 39 40 40 42 30 46 64 80 77 74 75 83 82 80 77
62 61 55 46 42 35 34 35 34 42 42 38 41 41 41 43 44 43 40 42 38 40 40 42 42 40 38 37 39 42 44 41 40 27 38 48 57 63 68 68 72 75 77
40 37 37 36 36 34 30 44 44 47 44 42 42 37 40 47 59 56 43 46 47 48 47 45 45 44 42 43 47 45 49 50 52 48 51 51 50 50 53 68 61 67 70
42 37 36 37 38 29 71 65 60 50 46 45 45 42 40 50 48 68 71 72 66 59 62 66 63 60 57 57 59 60 62 69 83 66 68 68 59 61 53 50 61 72 74
37 38 38 38 40 40 61 62 67 52 52 50 49 48 42 33 50 43 62 73 75 82 83 69 74 66 61 56 56 63 68 69 68 63 66 79 76 78 71 47 69 71 74
39 40 41 40 42 38 69 68 69 58 56 54 54 51 49 51 54 62 65 66 65 63 66 63 69 61 61 61 69 64 69 70 74 67 64 82 78 81 76 74 71 73 73
40 39 40 51 54 57 70 72 67 67 65 62 54 60 62 66 68 70 90 92 71 69 58 73 78 76 72 74 74 72 83 89 93 79 70 73 76 80 77 80 79 72 75
37 44 57 55 64 65 71 67 67 75 84 74 64 58 66 66 77 87 93 89 86 74 74 66 67 64 66 70 82 80 80 82 78 79 66 74 77 65 86 79 75 78 80

GFSMA_sfc_rhum_033.txt.gz
RH
78 77 73 74 72 70 70 71 68 66 67 64 66 68 65 60 58 59 72 73 68 62 53 52 56 64 69 72 76 81 81 80 80 80 86 88 88 88 90 90 89 88 87
75 74 74 72 70 71 71 70 67 66 67 68 66 62 61 59 54 53 59 71 72 67 63 55 55 59 64 69 71 72 76 80 80 80 85 86 87 88 89 90 90 89 86
70 72 75 77 76 77 72 72 70 75 77 70 71 69 66 63 61 54 51 65 71 75 72 71 64 61 62 62 65 70 71 76 78 79 82 87 87 86 89 88 90 89 88
62 70 74 74 76 75 74 77 79 77 77 79 78 72 69 64 60 56 49 57 63 62 73 74 74 70 65 60 61 62 65 70 74 83 85 85 88 89 90 94 95 92 90
66 69 68 72 74 77 79 79 79 84 84 82 73 69 73 74 70 52 55 54 59 63 61 72 77 74 71 66 59 54 53 61 68 77 80 84 85 88 88 89 91 92 96
60 68 70 71 74 73 76 80 80 78 82 84 62 63 76 80 78 77 68 52 56 56 59 59 73 71 76 71 61 56 52 56 63 67 70 75 77 79 81 81 83 86 91
62 64 68 68 69 72 73 73 79 82 75 82 78 70 77 79 77 79 77 74 69 63 54 59 64 66 65 73 67 57 53 53 56 65 63 62 62 65 66 66 67 73 80
62 57 68 69 69 76 77 79 78 81 82 82 87 80 81 71 72 71 75 74 78 82 70 58 62 64 57 62 67 65 55 51 56 62 62 62 64 64 64 62 62 61 62
59 60 64 70 72 76 81 81 80 87 94 88 88 95 96 94 83 73 71 77 87 92 89 87 78 59 55 58 63 65 67 64 59 56 56 56 59 59 57 56 56 58 60
63 59 61 67 74 79 82 88 84 94 94 97 92 72 88 88 89 84 82 69 81 84 89 93 94 93 90 76 61 66 72 75 71 60 53 57 54 53 52 53 55 57 58
62 60 60 71 86 89 91 94 94 91 81 83 83 82 78 84 94 99 90 81 77 82 86 95 92 95 92 96 95 83 80 74 74 65 57 52 50 50 51 53 52 53 53
68 71 78 89 90 92 94 96 94 87 93 89 86 92 93 92 84 89 92 88 90 86 82 91 96 94 93 95 92 95 89 82 73 68 62 52 49 48 50 49 50 51 53
78 91 89 91 94 93 93 92 90 93 94 95 91 85 94 97 94 94 98 98 94 89 94 92 95 94 86 94 94 92 92 91 75 73 69 62 56 56 54 52 52 52 53
91 90 89 90 90 90 92 93 95 96 95 96 96 94 95 92 93 97 92 97 95 89 90 86 91 94 93 90 90 88 93 93 91 83 71 69 67 64 61 57 56 56 54
68 86 88 89 88 89 90 92 96 94 92 95 96 95 96 95 94 92 95 97 99 98 88 75 79 75 81 92 88 88 91 90 91 88 81 74 72 69 66 59 57 58 56
74 76 83 85 81 83 86 91 92 87 90 96 95 96 95 95 94 91 80 89 92 94 93 80 69 71 61 46 73 83 83 74 77 89 86 80 76 73 72 72 71 65 59
75 77 80 75 78 83 81 83 84 84 85 85 82 77 75 71 79 81 79 78 87 88 94 78 82 72 72 65 52 61 66 71 66 83 83 78 79 80 78 77 77 76 73
86 82 78 78 76 80 78 76 74 68 68 67 66 68 65 49 69 71 74 72 73 71 74 72 70 66 59 56 60 58 47 36 48 64 80 76 78 81 80 81 82 81 79
90 87 83 82 77 74 65 61 65 68 69 67 65 66 67 64 65 66 64 70 75 56 69 73 70 70 68 63 56 55 56 57 43 56 64 79 82 81 82 82 81 81 79
86 85 67 64 63 58 59 62 61 70 72 68 71 70 68 68 68 70 68 69 61 70 71 74 79 77 76 72 73 79 79 76 74 50 62 68 71 68 78 84 85 82 83
64 64 60 61 63 59 56 72 71 76 76 76 75 65 64 66 65 70 66 79 75 78 81 83 83 82 80 81 75 83 85 86 83 81 81 80 78 76 73 72 79 82 83
61 57 58 64 72 51 76 72 76 81 77 75 76 74 74 66 66 71 73 74 77 87 92 91 88 88 81 78 78 89 91 93 92 89 91 94 89 88 82 80 72 80 80
59 60 61 72 73 76 75 71 74 81 80 80 81 80 65 51 71 76 77 79 78 78 84 81 91 91 90 83 77 84 90 92 86 87 91 90 97 93 89 69 77 78 79
59 60 73 75 74 61 74 75 80 85 86 83 82 79 76 79 81 76 76 86 88 90 89 79 86 88 87 83 84 80 89 96 98 97 95 90 87 90 93 94 81 79 79
63 70 78 81 83 83 79 82 82 94 94 92 82 82 76 77 75 73 95 98 93 92 76 74 75 74 82 90 98 98 98 97 90 85 94 91 87 92 95 94 94 80 80
78 84 84 90 85 90 81 76 84 99 99 91 89 77 76 72 80 92 94 98 97 88 86 87 89 82 76 78 79 83 86 94 90 94 81 92 89 92 98 97 91 89 92